| time (UTC) | temp C | wind direction | speed KPH | gust KPH | rain 1hr cm | rain 24hr cm | rain mn cm | humidity % | barometer mb |
| 20260504000219 | 15 | 221 | 4.8 | 6.4 | 0.00 | 0.00 | 0.00 | 41 | 1047.6 |
| 20260503235718 | 15 | 182 | 6.4 | 6.4 | 0.00 | 0.00 | 0.00 | 40 | 1047.7 |
| 20260503235214 | 16 | 207 | 3.2 | 6.4 | 0.00 | 0.00 | 0.00 | 39 | 1047.6 |
| 20260503234712 | 16 | 226 | 3.2 | 4.8 | 0.00 | 0.00 | 0.00 | 41 | 1047.6 |
| 20260503234210 | 16 | 229 | 3.2 | 11.3 | 0.00 | 0.00 | 0.00 | 40 | 1047.8 |
| 20260503233707 | 16 | 249 | 1.6 | 3.2 | 0.00 | 0.00 | 0.00 | 40 | 1047.9 |
| 20260503233202 | 16 | 244 | 3.2 | 11.3 | 0.00 | 0.00 | 0.00 | 40 | 1048.1 |
| 20260503232659 | 16 | 229 | 6.4 | 9.7 | 0.00 | 0.00 | 0.00 | 37 | 1048.2 |
| 20260503232156 | 16 | 235 | 1.6 | 3.2 | 0.00 | 0.00 | 0.00 | 42 | 1048.1 |
| 20260503231655 | 16 | 230 | 6.4 | 12.9 | 0.00 | 0.00 | 0.00 | 38 | 1047.8 |
| 20260503231151 | 16 | 258 | 4.8 | 9.7 | 0.00 | 0.00 | 0.00 | 38 | 1048.2 |
| 20260503230647 | 16 | 224 | 6.4 | 6.4 | 0.00 | 0.00 | 0.00 | 36 | 1048.4 |
| 20260503230145 | 16 | 205 | 6.4 | 11.3 | 0.00 | 0.00 | 0.00 | 36 | 1048.4 |
| 20260503225642 | 16 | 253 | 6.4 | 6.4 | 0.00 | 0.00 | 0.00 | 36 | 1048.4 |
| 20260503225142 | 16 | 279 | 3.2 | 9.7 | 0.00 | 0.00 | 0.00 | 36 | 1048.6 |
| 20260503224639 | 17 | 202 | 9.7 | 11.3 | 0.00 | 0.00 | 0.00 | 34 | 1048.6 |
| 20260503224137 | 17 | 227 | 8.0 | 12.9 | 0.00 | 0.00 | 0.00 | 33 | 1048.5 |
| 20260503223635 | 17 | 198 | 6.4 | 11.3 | 0.00 | 0.00 | 0.00 | 34 | 1048.5 |
| 20260503223131 | 17 | 247 | 4.8 | 11.3 | 0.00 | 0.00 | 0.00 | 33 | 1048.3 |
| 20260503222629 | 17 | 233 | 8.0 | 11.3 | 0.00 | 0.00 | 0.00 | 32 | 1048.7 |
| 20260503222126 | 17 | 249 | 6.4 | 11.3 | 0.00 | 0.00 | 0.00 | 34 | 1048.8 |
| 20260503221624 | 17 | 246 | 4.8 | 12.9 | 0.00 | 0.00 | 0.00 | 32 | 1048.8 |
| 20260503221122 | 17 | 232 | 8.0 | 14.5 | 0.00 | 0.00 | 0.00 | 32 | 1048.7 |
| 20260503220618 | 17 | 265 | 4.8 | 9.7 | 0.00 | 0.00 | 0.00 | 33 | 1048.9 |
| 20260503220115 | 17 | 240 | 3.2 | 11.3 | 0.00 | 0.00 | 0.00 | 36 | 1049.0 |
| 20260503215612 | 18 | 280 | 3.2 | 11.3 | 0.00 | 0.00 | 0.00 | 32 | 1049.2 |
| 20260503215108 | 17 | 299 | 3.2 | 6.4 | 0.00 | 0.00 | 0.00 | 34 | 1049.2 |
| 20260503214607 | 17 | 205 | 8.0 | 11.3 | 0.00 | 0.00 | 0.00 | 34 | 1048.8 |
| 20260503214103 | 17 | 275 | 4.8 | 9.7 | 0.00 | 0.00 | 0.00 | 33 | 1049.0 |
| 20260503213602 | 17 | 260 | 9.7 | 16.1 | 0.00 | 0.00 | 0.00 | 32 | 1048.8 |
| 20260503213058 | 17 | 216 | 6.4 | 17.7 | 0.00 | 0.00 | 0.00 | 33 | 1048.9 |
| 20260503212555 | 17 | 228 | 6.4 | 12.9 | 0.00 | 0.00 | 0.00 | 34 | 1049.0 |
| 20260503212053 | 17 | 268 | 9.7 | 17.7 | 0.00 | 0.00 | 0.00 | 33 | 1049.1 |
| 20260503211550 | 17 | 255 | 8.0 | 14.5 | 0.00 | 0.00 | 0.00 | 31 | 1049.2 |
| 20260503211045 | 17 | 312 | 11.3 | 16.1 | 0.00 | 0.00 | 0.00 | 30 | 1049.4 |
| 20260503210542 | 17 | 244 | 8.0 | 11.3 | 0.00 | 0.00 | 0.00 | 34 | 1049.3 |
| 20260503210038 | 17 | 252 | 12.9 | 16.1 | 0.00 | 0.00 | 0.00 | 32 | 1049.4 |
| 20260503205535 | 17 | 257 | 11.3 | 16.1 | 0.00 | 0.00 | 0.00 | 34 | 1049.7 |
| 20260503205031 | 17 | 255 | 9.7 | 17.7 | 0.00 | 0.00 | 0.00 | 32 | 1049.3 |
| 20260503204528 | 17 | 265 | 8.0 | 14.5 | 0.00 | 0.00 | 0.00 | 35 | 1049.5 |
| 20260503204025 | 17 | 275 | 6.4 | 16.1 | 0.00 | 0.00 | 0.00 | 33 | 1049.6 |
| 20260503203523 | 17 | 206 | 8.0 | 17.7 | 0.00 | 0.00 | 0.00 | 33 | 1049.5 |
| 20260503203020 | 17 | 153 | 12.9 | 17.7 | 0.00 | 0.00 | 0.00 | 30 | 1049.9 |
| 20260503202517 | 17 | 259 | 11.3 | 24.1 | 0.00 | 0.00 | 0.00 | 32 | 1050.0 |
| 20260503202015 | 17 | 209 | 3.2 | 12.9 | 0.00 | 0.00 | 0.00 | 36 | 1049.9 |
| 20260503201513 | 17 | 259 | 6.4 | 14.5 | 0.00 | 0.00 | 0.00 | 35 | 1050.2 |
| 20260503201010 | 17 | 290 | 8.0 | 17.7 | 0.00 | 0.00 | 0.00 | 31 | 1050.4 |
| 20260503200506 | 16 | 307 | 4.8 | 4.8 | 0.00 | 0.00 | 0.00 | 34 | 1050.3 |
| 20260503200003 | 16 | 271 | 9.7 | 14.5 | 0.00 | 0.00 | 0.00 | 32 | 1050.2 |
| 20260503195500 | 17 | 238 | 9.7 | 14.5 | 0.00 | 0.00 | 0.00 | 33 | 1050.7 |
| 20260503194956 | 17 | 213 | 4.8 | 12.9 | 0.00 | 0.00 | 0.00 | 39 | 1050.8 |
| 20260503194454 | 17 | 243 | 4.8 | 11.3 | 0.00 | 0.00 | 0.00 | 35 | 1050.7 |
| 20260503193949 | 17 | 258 | 9.7 | 14.5 | 0.00 | 0.00 | 0.00 | 34 | 1051.0 |
| 20260503193445 | 17 | 226 | 8.0 | 11.3 | 0.00 | 0.00 | 0.00 | 31 | 1051.0 |
| 20260503192940 | 17 | 224 | 4.8 | 9.7 | 0.00 | 0.00 | 0.00 | 33 | 1051.2 |
| 20260503192437 | 16 | 12 | 1.6 | 11.3 | 0.00 | 0.00 | 0.00 | 38 | 1051.1 |
| 20260503191932 | 16 | 276 | 4.8 | 12.9 | 0.00 | 0.00 | 0.00 | 34 | 1051.3 |
| 20260503191431 | 16 | 250 | 6.4 | 16.1 | 0.00 | 0.00 | 0.00 | 33 | 1051.2 |
| 20260503190926 | 16 | 266 | 9.7 | 14.5 | 0.00 | 0.00 | 0.00 | 35 | 1051.3 |
| 20260503190424 | 16 | 229 | 6.4 | 14.5 | 0.00 | 0.00 | 0.00 | 33 | 1051.3 |
| 20260503185921 | 16 | 195 | 6.4 | 11.3 | 0.00 | 0.00 | 0.00 | 32 | 1051.3 |
| 20260503185418 | 16 | 273 | 6.4 | 12.9 | 0.00 | 0.00 | 0.00 | 32 | 1051.6 |
| 20260503184916 | 16 | 261 | 9.7 | 12.9 | 0.00 | 0.00 | 0.00 | 35 | 1051.7 |
| 20260503184413 | 16 | 251 | 11.3 | 14.5 | 0.00 | 0.00 | 0.00 | 37 | 1051.6 |
| 20260503183910 | 16 | 253 | 4.8 | 17.7 | 0.00 | 0.00 | 0.00 | 31 | 1051.8 |
| 20260503183406 | 16 | 157 | 9.7 | 14.5 | 0.00 | 0.00 | 0.00 | 32 | 1051.6 |
| 20260503182903 | 15 | 172 | 8.0 | 16.1 | 0.00 | 0.00 | 0.00 | 35 | 1052.0 |
| 20260503182402 | 16 | 269 | 14.5 | 16.1 | 0.00 | 0.00 | 0.00 | 34 | 1051.8 |
| 20260503181859 | 15 | 215 | 6.4 | 6.4 | 0.00 | 0.00 | 0.00 | 34 | 1052.0 |
| 20260503181356 | 16 | 237 | 8.0 | 12.9 | 0.00 | 0.00 | 0.00 | 35 | 1052.2 |
| 20260503180853 | 16 | 231 | 9.7 | 12.9 | 0.00 | 0.00 | 0.00 | 35 | 1051.9 |
| 20260503180351 | 16 | 165 | 9.7 | 12.9 | 0.00 | 0.00 | 0.00 | 35 | 1051.8 |
| 20260503175847 | 15 | 230 | 9.7 | 14.5 | 0.00 | 0.00 | 0.00 | 38 | 1052.1 |
| 20260503175345 | 15 | 261 | 11.3 | 17.7 | 0.00 | 0.00 | 0.00 | 35 | 1052.5 |
| 20260503174840 | 16 | 254 | 9.7 | 12.9 | 0.00 | 0.00 | 0.00 | 30 | 1052.6 |
| 20260503174339 | 16 | 251 | 8.0 | 9.7 | 0.00 | 0.00 | 0.00 | 33 | 1052.7 |
| 20260503173834 | 15 | 256 | 4.8 | 11.3 | 0.00 | 0.00 | 0.00 | 33 | 1052.5 |
| 20260503173330 | 15 | 234 | 3.2 | 6.4 | 0.00 | 0.00 | 0.00 | 31 | 1052.9 |
| 20260503172827 | 15 | 305 | 6.4 | 12.9 | 0.00 | 0.00 | 0.00 | 32 | 1052.7 |
| 20260503172325 | 15 | 231 | 4.8 | 16.1 | 0.00 | 0.00 | 0.00 | 37 | 1052.8 |
| 20260503171821 | 15 | 282 | 8.0 | 12.9 | 0.00 | 0.00 | 0.00 | 39 | 1053.0 |
| 20260503171318 | 15 | 230 | 4.8 | 11.3 | 0.00 | 0.00 | 0.00 | 38 | 1053.0 |
| 20260503170815 | 15 | 221 | 3.2 | 14.5 | 0.00 | 0.00 | 0.00 | 37 | 1053.2 |
| 20260503170311 | 15 | 223 | 14.5 | 17.7 | 0.00 | 0.00 | 0.00 | 34 | 1053.0 |
| 20260503150704 | 13 | 214 | 6.4 | 11.3 | 0.00 | 0.00 | 0.00 | 37 | 1054.5 |
| 20260503150200 | 13 | 289 | 8.0 | 11.3 | 0.00 | 0.00 | 0.00 | 37 | 1054.4 |
| 20260503140124 | 11 | 219 | 3.2 | 4.8 | 0.00 | 0.00 | 0.00 | 51 | 1054.6 |
| 20260503131054 | 7 | 172 | 6.4 | 4.8 | 0.00 | 0.00 | 0.00 | 73 | 1054.3 |
| 20260503130550 | 7 | 168 | 3.2 | 6.4 | 0.00 | 0.00 | 0.00 | 76 | 1054.3 |
| 20260503110441 | -1 | 133 | 0.0 | 0.0 | 0.00 | 0.00 | 0.00 | 96 | 1053.7 |
| 20260503090332 | -1 | 48 | 0.0 | 0.0 | 0.00 | 0.00 | 0.00 | 95 | 1052.9 |
| 20260503081300 | 0 | 48 | 0.0 | 0.0 | 0.00 | 0.00 | 0.00 | 95 | 1052.9 |
| 20260503080756 | 0 | 48 | 0.0 | 0.0 | 0.00 | 0.00 | 0.00 | 95 | 1052.8 |
| 20260503080253 | 0 | 48 | 0.0 | 0.0 | 0.00 | 0.00 | 0.00 | 95 | 1052.7 |
| 20260503072730 | 0 | 48 | 0.0 | 0.0 | 0.00 | 0.00 | 0.00 | 95 | 1052.5 |
| 20260503072226 | 0 | 48 | 0.0 | 0.0 | 0.00 | 0.00 | 0.00 | 94 | 1052.6 |
| 20260503071723 | 0 | 48 | 0.0 | 0.0 | 0.00 | 0.00 | 0.00 | 94 | 1052.6 |
| 20260503071220 | 1 | 48 | 0.0 | 0.0 | 0.00 | 0.00 | 0.00 | 94 | 1052.7 |
| 20260503070716 | 1 | 49 | 0.0 | 1.6 | 0.00 | 0.00 | 0.00 | 94 | 1052.4 |
| 20260503070215 | 1 | 49 | 1.6 | 1.6 | 0.00 | 0.00 | 0.00 | 94 | 1052.6 |
| 20260503060139 | 1 | 48 | 0.0 | 0.0 | 0.00 | 0.00 | 0.00 | 90 | 1052.8 |
| 20260503054626 | 2 | 48 | 0.0 | 0.0 | 0.00 | 0.00 | 0.00 | 90 | 1052.6 |
| 20260503054123 | 1 | 48 | 0.0 | 0.0 | 0.00 | 0.00 | 0.00 | 89 | 1052.7 |
| 20260503053621 | 1 | 48 | 0.0 | 0.0 | 0.00 | 0.00 | 0.00 | 88 | 1052.8 |
| 20260503053120 | 1 | 48 | 0.0 | 0.0 | 0.00 | 0.00 | 0.00 | 89 | 1052.9 |
| 20260503052616 | 1 | 48 | 0.0 | 0.0 | 0.00 | 0.00 | 0.00 | 87 | 1052.8 |
| 20260503052112 | 1 | 48 | 0.0 | 0.0 | 0.00 | 0.00 | 0.00 | 86 | 1052.9 |
| 20260503051608 | 2 | 48 | 0.0 | 0.0 | 0.00 | 0.00 | 0.00 | 86 | 1053.0 |
| 20260503051106 | 2 | 48 | 0.0 | 0.0 | 0.00 | 0.00 | 0.00 | 85 | 1052.9 |
| 20260503050601 | 2 | 48 | 0.0 | 0.0 | 0.00 | 0.00 | 0.00 | 83 | 1053.1 |
| 20260503050059 | 3 | 48 | 0.0 | 0.0 | 0.00 | 0.00 | 0.00 | 81 | 1052.8 |
| 20260503045555 | 3 | 48 | 0.0 | 0.0 | 0.00 | 0.00 | 0.00 | 80 | 1052.9 |
| 20260503045053 | 4 | 48 | 0.0 | 1.6 | 0.00 | 0.00 | 0.00 | 77 | 1052.9 |
| 20260503044549 | 4 | 48 | 1.6 | 1.6 | 0.00 | 0.00 | 0.00 | 74 | 1052.8 |
| 20260503044047 | 4 | 47 | 1.6 | 1.6 | 0.00 | 0.00 | 0.00 | 75 | 1052.7 |
| 20260503043543 | 4 | 47 | 0.0 | 0.0 | 0.00 | 0.00 | 0.00 | 78 | 1052.8 |
| 20260503043040 | 4 | 47 | 0.0 | 0.0 | 0.00 | 0.00 | 0.00 | 79 | 1052.8 |
| 20260503042537 | 4 | 47 | 0.0 | 0.0 | 0.00 | 0.00 | 0.00 | 78 | 1052.9 |
| 20260503042033 | 3 | 47 | 0.0 | 1.6 | 0.00 | 0.00 | 0.00 | 76 | 1052.8 |
| 20260503041530 | 3 | 47 | 0.0 | 0.0 | 0.00 | 0.00 | 0.00 | 78 | 1052.8 |
| 20260503041028 | 4 | 47 | 0.0 | 0.0 | 0.00 | 0.00 | 0.00 | 77 | 1052.9 |
| 20260503040525 | 3 | 47 | 1.6 | 1.6 | 0.00 | 0.00 | 0.00 | 76 | 1052.6 |
| 20260503040022 | 3 | 47 | 0.0 | 0.0 | 0.00 | 0.00 | 0.00 | 80 | 1052.5 |
| 20260503035519 | 4 | 47 | 0.0 | 0.0 | 0.00 | 0.00 | 0.00 | 80 | 1052.7 |
| 20260503035016 | 5 | 47 | 0.0 | 0.0 | 0.00 | 0.00 | 0.00 | 78 | 1052.7 |
| 20260503034514 | 5 | 47 | 0.0 | 1.6 | 0.00 | 0.00 | 0.00 | 76 | 1052.7 |
| 20260503034010 | 4 | 46 | 0.0 | 1.6 | 0.00 | 0.00 | 0.00 | 77 | 1052.5 |
| 20260503033508 | 4 | 46 | 1.6 | 1.6 | 0.00 | 0.00 | 0.00 | 82 | 1052.5 |
| 20260503033006 | 4 | 46 | 1.6 | 1.6 | 0.00 | 0.00 | 0.00 | 84 | 1052.6 |
| 20260503032504 | 3 | 45 | 0.0 | 0.0 | 0.00 | 0.00 | 0.00 | 88 | 1052.6 |
| 20260503032002 | 3 | 45 | 0.0 | 0.0 | 0.00 | 0.00 | 0.00 | 89 | 1052.5 |
| 20260503031459 | 3 | 45 | 0.0 | 0.0 | 0.00 | 0.00 | 0.00 | 88 | 1052.3 |
| 20260503030955 | 3 | 45 | 0.0 | 0.0 | 0.00 | 0.00 | 0.00 | 86 | 1052.6 |
| 20260503030452 | 3 | 45 | 0.0 | 0.0 | 0.00 | 0.00 | 0.00 | 86 | 1052.5 |
| 20260503025949 | 3 | 45 | 0.0 | 0.0 | 0.00 | 0.00 | 0.00 | 85 | 1052.4 |
| 20260503025446 | 4 | 45 | 0.0 | 0.0 | 0.00 | 0.00 | 0.00 | 83 | 1052.5 |
| 20260503024943 | 4 | 45 | 0.0 | 0.0 | 0.00 | 0.00 | 0.00 | 82 | 1052.4 |
| 20260503024439 | 5 | 45 | 0.0 | 0.0 | 0.00 | 0.00 | 0.00 | 81 | 1052.6 |
| 20260503023937 | 5 | 45 | 0.0 | 0.0 | 0.00 | 0.00 | 0.00 | 83 | 1052.4 |
| 20260503023434 | 4 | 45 | 0.0 | 0.0 | 0.00 | 0.00 | 0.00 | 84 | 1052.3 |
| 20260503022931 | 4 | 45 | 0.0 | 0.0 | 0.00 | 0.00 | 0.00 | 84 | 1052.2 |
| 20260503022426 | 4 | 45 | 0.0 | 0.0 | 0.00 | 0.00 | 0.00 | 82 | 1052.1 |
| 20260503021922 | 4 | 45 | 0.0 | 0.0 | 0.00 | 0.00 | 0.00 | 81 | 1052.0 |
| 20260503021418 | 5 | 45 | 0.0 | 0.0 | 0.00 | 0.00 | 0.00 | 81 | 1051.8 |
| 20260503020916 | 5 | 45 | 0.0 | 0.0 | 0.00 | 0.00 | 0.00 | 79 | 1051.8 |
| 20260503020413 | 5 | 45 | 0.0 | 0.0 | 0.00 | 0.00 | 0.00 | 78 | 1051.9 |
| 20260503015909 | 5 | 45 | 0.0 | 0.0 | 0.00 | 0.00 | 0.00 | 77 | 1051.6 |
| 20260503015407 | 5 | 45 | 0.0 | 0.0 | 0.00 | 0.00 | 0.00 | 77 | 1051.6 |
| 20260503014902 | 5 | 45 | 0.0 | 0.0 | 0.00 | 0.00 | 0.00 | 76 | 1051.5 |
| 20260503014400 | 5 | 45 | 0.0 | 0.0 | 0.00 | 0.00 | 0.00 | 76 | 1051.7 |
| 20260503013858 | 6 | 45 | 0.0 | 1.6 | 0.00 | 0.00 | 0.00 | 76 | 1051.3 |
| 20260503013354 | 5 | 38 | 3.2 | 3.2 | 0.00 | 0.00 | 0.00 | 75 | 1051.2 |
| 20260503012851 | 6 | 346 | 0.0 | 0.0 | 0.00 | 0.00 | 0.00 | 76 | 1051.2 |
| 20260503012349 | 6 | 346 | 0.0 | 0.0 | 0.00 | 0.00 | 0.00 | 75 | 1051.0 |
| 20260503011846 | 6 | 346 | 0.0 | 0.0 | 0.00 | 0.00 | 0.00 | 72 | 1051.1 |
| 20260503011343 | 7 | 346 | 0.0 | 0.0 | 0.00 | 0.00 | 0.00 | 70 | 1051.1 |
| 20260503010839 | 6 | 346 | 0.0 | 0.0 | 0.00 | 0.00 | 0.00 | 70 | 1051.1 |
| 20260503010336 | 7 | 346 | 0.0 | 0.0 | 0.00 | 0.00 | 0.00 | 68 | 1051.0 |
| 20260503005833 | 7 | 346 | 0.0 | 0.0 | 0.00 | 0.00 | 0.00 | 68 | 1050.8 |
| 20260503005331 | 7 | 346 | 0.0 | 0.0 | 0.00 | 0.00 | 0.00 | 67 | 1050.8 |
| 20260503004826 | 8 | 346 | 0.0 | 0.0 | 0.00 | 0.00 | 0.00 | 64 | 1050.8 |
| 20260503004324 | 8 | 346 | 0.0 | 0.0 | 0.00 | 0.00 | 0.00 | 63 | 1050.8 |
| 20260503003822 | 8 | 346 | 0.0 | 0.0 | 0.00 | 0.00 | 0.00 | 62 | 1050.8 |
| 20260503003318 | 8 | 346 | 0.0 | 0.0 | 0.00 | 0.00 | 0.00 | 59 | 1050.4 |
| 20260503002815 | 9 | 346 | 0.0 | 0.0 | 0.00 | 0.00 | 0.00 | 59 | 1050.8 |
| 20260503002312 | 10 | 346 | 0.0 | 0.0 | 0.00 | 0.00 | 0.00 | 56 | 1050.5 |
| 20260503001809 | 10 | 346 | 0.0 | 1.6 | 0.00 | 0.00 | 0.00 | 54 | 1050.5 |
| 20260503001305 | 10 | 332 | 1.6 | 1.6 | 0.00 | 0.00 | 0.00 | 53 | 1050.4 |
| 20260503000803 | 10 | 331 | 0.0 | 1.6 | 0.00 | 0.00 | 0.00 | 53 | 1050.3 |
| 20260503000300 | 10 | 331 | 0.0 | 1.6 | 0.00 | 0.00 | 0.00 | 55 | 1050.2 |